{"data":{"norad_id":59400,"intl_designator":"2024-064C","name":"STARLINK-31545","alt_names":[],"object_type":"PAYLOAD","status":"ACTIVE","operator":null,"country":"US","launch_date":"2024-04-05","launch_site_code":"AFETR","launch_vehicle":null,"mission":null,"orbit_class":"UNKNOWN","rcs_meters":null,"size_class":null,"mass_kg":null,"dimensions":null,"purposes":["comms"],"wikipedia_slug":null,"has_3d_model":false,"image_url":null,"decayed_at":null,"tle_current":{"epoch":"2026-09-21T16:30:01.547424Z","epoch_age_seconds":62596,"freshness":"FRESH","line1":"1 59400U 24064C   26264.68751791  .00000579  00000+0  30562-4 0  9998","line2":"2 59400  43.0028  29.0613 0001322 268.1847  91.8854 15.27574208139203","mean_motion":15.27574208,"eccentricity":0.0001322,"inclination_deg":43.0028,"raan_deg":29.0613,"arg_perigee_deg":268.1847,"mean_anomaly_deg":91.8854,"bstar":3.0562e-5,"rev_number":13920,"period_min":94.267106138519,"perigee_km":482.15938833142,"apogee_km":483.97349052081,"semimajor_km":6861.2034394261,"source":"CELESTRAK","updated_at":"2026-09-22T09:00:48.913180Z"}}}